[[{"header":{"parameterUnit":"m.s-1","parameterCategory":2,"la1":30.2991,"la2":30.254,"lo1":-89.0895,"lo2":-89.0444,"dy":0.0017,"dx":0.0017,"nx":28,"ny":28,"refTime":"2024-02-25T03:00:00:Z","depth":"0","parameterNumber":2,"parameterNumberName":"U-component_of_CURRENTS"},"data":[0,0,0,0,0,0,0,0,0,0,0,0,0,0,0,0,0,0,0,0,0,0,0,0,0,0,0,0,0,0,0,0,0,0,0,0,0,0,0,0,0,0,0,0,0,0,0,0,0,0,0,0,0,0,0,0,0,0,0.2206,0.2206,0,0.2128,0.2126,0.2125,0.2036,0.2035,0.2035,0.2034,0.191,0.1908,0.1905,0,0,0,0,0,0,0,0,0,0,0,0,0,0.2239,0.2238,0.2206,0.2206,0.2205,0.2128,0.2126,0.2125,0.2036,0.2035,0.2035,0.2034,0.1911,0.1908,0.1905,0,0,0,0,0,0,0,0,0,0,0,0,0,0.2193,0.2238,0.2206,0.2156,0.2152,0.2128,0.2126,0.2124,0.2037,0.2035,0.2034,0.2033,0.1912,0.1908,0.1904,0.1903,0,0,0.1892,0.1891,0,0,0,0,0,0,0,0,0.2196,0.2191,0.2164,0.216,0.2154,0.2096,0.2093,0.205,0.2037,0.2074,0.2034,0.2033,0.1973,0.1964,0.1943,0.1897,0.1892,0.1892,0.189,0.1888,0.1887,0,0,0,0,0,0,0,0.2199,0.2194,0.2169,0.2164,0.2158,0.2125,0.2117,0.2084,0.2025,0.207,0.2065,0.2067,0.1969,0.1948,0.194,0.189,0.1892,0.1889,0.1886,0.1885,0.1829,0.183,0,0,0,0,0,0,0.2225,0.2197,0.2171,0.2167,0.218,0.2126,0.2116,0.2111,0.2026,0.2014,0.2068,0.2063,0.1955,0.1945,0.1935,0.1921,0.1888,0.1884,0.1882,0.1828,0.1829,0.183,0,0,0,0,0,0,0.2226,0.2223,0.2174,0.2186,0.2178,0.2127,0.2121,0.211,0.2084,0.2026,0.2011,0.2054,0.1953,0.1941,0.1916,0.1916,0.1883,0.1879,0.1827,0.1828,0.1829,0.1897,0,0,0,0,0,0,0.2227,0.2223,0.2221,0.2187,0.2178,0.2156,0.2123,0.211,0.2091,0.2083,0.201,0.1997,0.1952,0.1922,0.1912,0.191,0.1876,0.1826,0.1827,0.1829,0.1894,0.1901,0.1906,0,0,0,0,0,0.2228,0.2219,0.2221,0.2218,0.2179,0.2157,0.2148,0.2104,0.2091,0.2077,0.2044,0.1999,0.1925,0.192,0.1908,0.1904,0.1825,0.1827,0.1829,0.1891,0.1899,0.1906,0,0,0,0,0,0,0.2218,0.2209,0.221,0.2196,0.2183,0.2144,0.2126,0.2112,0.2073,0.2067,0.2012,0.1998,0.1971,0.1939,0.1935,0.1895,0.1867,0.1866,0.1918,0.1925,0.1931,0.1942,0.1873,0,0,0,0,0,0.2225,0.2218,0.221,0.2198,0.2196,0.2169,0.2154,0.2134,0.2104,0.2084,0.2041,0.2001,0.1971,0.195,0.1911,0.1897,0.1922,0.1887,0.1893,0.1899,0.1901,0.1973,0.1987,0.1836,0.1836,0.1836,0,0,0.2218,0.2213,0.2208,0.2197,0.2181,0.2171,0.2153,0.2137,0.2125,0.208,0.2042,0.2017,0.1973,0.1949,0.1935,0.1921,0.1958,0.1901,0.1906,0.1905,0.1977,0.1992,0.2005,0.1837,0.1837,0.1837,0,0,0.2198,0.2201,0.219,0.2186,0.2179,0.2169,0.2173,0.2146,0.2128,0.2108,0.2077,0.2068,0.2003,0.1985,0.1966,0.1989,0.1988,0.1968,0.2007,0.2078,0.2092,0.2104,0.2176,0.2194,0.1973,0.1974,0.1974,0,0.219,0.2177,0.2182,0.2173,0.2171,0.2174,0.2165,0.2153,0.2121,0.2122,0.2099,0.206,0.202,0.2021,0.2022,0.2002,0.2048,0.1982,0.2089,0.2102,0.2113,0.2183,0.2202,0.1977,0.1977,0.1976,0.1976,0,0.2164,0.2157,0.2149,0.2147,0.2149,0.2139,0.2146,0.2146,0.2138,0.213,0.2129,0.2102,0.2084,0.2072,0.2046,0.2101,0.211,0.2092,0.2076,0.2133,0.2203,0.2221,0.1982,0.1981,0.198,0.1979,0,0,0.2131,0.2131,0.2128,0.2128,0.2136,0.2133,0.2143,0.2151,0.2166,0.2151,0.217,0.2139,0.2149,0.2131,0.2119,0.2172,0.2291,0.2169,0.2171,0.2249,0.2467,0.2505,0.2529,0.2304,0.2307,0.2309,0.2492,0,0.2105,0.2094,0.21,0.209,0.2089,0.2112,0.212,0.2139,0.2153,0.2174,0.2188,0.2193,0.2166,0.2176,0.2227,0.2266,0.234,0.2244,0.239,0.2394,0.243,0.2551,0.2462,0.262,0.251,0.2513,0.2515,0,0.207,0.2075,0.2065,0.2078,0.208,0.2077,0.212,0.2129,0.218,0.2195,0.2234,0.2248,0.2313,0.2287,0.242,0.2366,0.2426,0.2465,0.2473,0.2494,0.2467,0.2539,0.2658,0.2473,0.2543,0.2541,0.2539,0,0.2049,0.2044,0.2039,0.2041,0.2062,0.2067,0.2084,0.2134,0.2162,0.2229,0.2269,0.2335,0.2382,0.2471,0.2546,0.2502,0.2709,0.2656,0.2754,0.2757,0.2701,0.2694,0.2663,0.2781,0.278,0.278,0.2779,0,0.2013,0.2005,0.2027,0.2024,0.203,0.2055,0.2079,0.2111,0.2179,0.2222,0.2285,0.2353,0.2435,0.2549,0.2607,0.2759,0.2771,0.2799,0.2823,0.2723,0.2717,0.2566,0.2495,0.2786,0.2785,0.2784,0.2782,0,0.197,0.1985,0.1983,0.2008,0.2015,0.2024,0.2071,0.2094,0.2171,0.2242,0.2275,0.2402,0.2563,0.2662,0.2818,0.2849,0.2891,0.3023,0.2905,0.2912,0.2812,0.2749,0.2752,0.2677,0.3168,0.3171,0.3172,0,0.194,0.1936,0.1968,0.1971,0.1972,0.1994,0.2009,0.2079,0.2117,0.2273,0.2308,0.2494,0.2608,0.2873,0.2991,0.3153,0.2989,0.3143,0.3036,0.2833,0.278,0.265,0.2576,0.2993,0.2993,0.2994,0.2994,0,0.1887,0.1902,0.1908,0.1925,0.1932,0.1947,0.1978,0.2018,0.2113,0.2205,0.2351,0.2467,0.2735,0.2864,0.308,0.3168,0.2956,0.3155,0.2969,0.2683,0.2516,0.2444,0.2839,0.2996,0.2996,0.2995,0.2995,0.2995,0.1843,0.184,0.1857,0.1862,0.1878,0.1889,0.189,0.1955,0.2039,0.216,0.2323,0.2469,0.2644,0.2955,0.3034,0.3041,0.3024,0.2915,0.2875,0.2775,0.2637,0.3054,0.3216,0.3217,0.3218,0.3219,0.322,0,0.1778,0.1782,0.1787,0.1794,0.1789,0.182,0.1854,0.186,0.1938,0.2089,0.223,0.2406,0.2536,0.2675,0.2788,0.2711,0.2612,0.2608,0.2341,0.2298,0.2688,0.2606,0.2612,0.2612,0.2612,0.2613,0.2613,0.2613,0.1742,0.1725,0.1731,0.1702,0.1708,0.1677,0.1688,0.1725,0.1809,0.1933,0.2032,0.2157,0.2276,0.2338,0.2294,0.2296,0.2076,0.2046,0.1995,0.2169,0.219,0.2209,0.2109,0.2011,0.201,0.1496,0.1492,0.1489]},{"header":{"parameterUnit":"m.s-1","parameterCategory":2,"la1":30.2991,"la2":30.254,"lo1":-89.0895,"lo2":-89.0444,"dy":0.0017,"dx":0.0017,"nx":28,"ny":28,"refTime":"2024-02-25T03:00:00:Z","depth":"0","parameterNumber":3,"parameterNumberName":"V-component_of_CURRENTS"},"data":[0,0,0,0,0,0,0,0,0,0,0,0,0,0,0,0,0,0,0,0,0,0,0,0,0,0,0,0,0,0,0,0,0,0,0,0,0,0,0,0,0,0,0,0,0,0,0,0,0,0,0,0,0,0,0,0,0,0,-0.0599,-0.0599,0,-0.0674,-0.0675,-0.0676,-0.074,-0.0741,-0.0742,-0.0742,-0.0789,-0.0789,-0.079,0,0,0,0,0,0,0,0,0,0,0,0,0,-0.0526,-0.0527,-0.0598,-0.0599,-0.06,-0.0674,-0.0675,-0.0676,-0.074,-0.0741,-0.0742,-0.0743,-0.0789,-0.0789,-0.079,0,0,0,0,0,0,0,0,0,0,0,0,0,-0.0575,-0.0528,-0.0598,-0.0642,-0.0646,-0.0674,-0.0675,-0.0676,-0.074,-0.0741,-0.0742,-0.0743,-0.0788,-0.0789,-0.079,-0.0772,0,0,-0.0792,-0.0793,0,0,0,0,0,0,0,0,-0.0572,-0.0577,-0.0634,-0.0639,-0.0644,-0.0699,-0.0667,-0.0707,-0.0739,-0.0704,-0.0742,-0.0744,-0.0756,-0.0759,-0.0771,-0.0775,-0.0777,-0.0793,-0.0793,-0.0793,-0.0794,0,0,0,0,0,0,0,-0.0569,-0.0575,-0.0628,-0.0635,-0.0641,-0.0663,-0.0671,-0.0675,-0.0721,-0.0707,-0.0712,-0.0721,-0.0758,-0.077,-0.0772,-0.0777,-0.0793,-0.0793,-0.0794,-0.0794,-0.0793,-0.0793,0,0,0,0,0,0,-0.0558,-0.0571,-0.0626,-0.063,-0.0611,-0.0664,-0.0672,-0.068,-0.0722,-0.073,-0.072,-0.0723,-0.0768,-0.0771,-0.0774,-0.0735,-0.0793,-0.0794,-0.0795,-0.0794,-0.0793,-0.0792,0,0,0,0,0,0,-0.0556,-0.0562,-0.0623,-0.0603,-0.0612,-0.0663,-0.0672,-0.0681,-0.0691,-0.0732,-0.074,-0.072,-0.0769,-0.0773,-0.0771,-0.0738,-0.0794,-0.0795,-0.0794,-0.0793,-0.0793,-0.0671,0,0,0,0,0,0,-0.0554,-0.0561,-0.0562,-0.0602,-0.0613,-0.0623,-0.0671,-0.0682,-0.0695,-0.07,-0.0734,-0.0741,-0.077,-0.0769,-0.0771,-0.0741,-0.0796,-0.0795,-0.0794,-0.0793,-0.0675,-0.0666,-0.0658,0,0,0,0,0,-0.0551,-0.0552,-0.0562,-0.0569,-0.0613,-0.0622,-0.0628,-0.0669,-0.0693,-0.0684,-0.0713,-0.0739,-0.0766,-0.0768,-0.0772,-0.074,-0.0795,-0.0794,-0.0793,-0.0679,-0.0668,-0.0658,0,0,0,0,0,0,-0.0533,-0.056,-0.0572,-0.0584,-0.0592,-0.0633,-0.0637,-0.0658,-0.0674,-0.0681,-0.0723,-0.0729,-0.072,-0.075,-0.0752,-0.0743,-0.0788,-0.0788,-0.0701,-0.069,-0.0682,-0.065,-0.0797,0,0,0,0,0,-0.0524,-0.0528,-0.055,-0.0558,-0.0559,-0.0592,-0.0602,-0.0621,-0.0643,-0.0653,-0.067,-0.0699,-0.0717,-0.0719,-0.0739,-0.072,-0.0743,-0.0709,-0.07,-0.0692,-0.0671,-0.068,-0.0669,-0.0789,-0.0789,-0.0789,0,0,-0.0522,-0.0536,-0.0541,-0.0553,-0.0568,-0.0553,-0.0601,-0.0604,-0.0586,-0.0652,-0.0629,-0.0663,-0.0708,-0.0695,-0.0693,-0.0713,-0.0671,-0.069,-0.0683,-0.0666,-0.0678,-0.0666,-0.0655,-0.0788,-0.0788,-0.0788,0,0,-0.0507,-0.0525,-0.0513,-0.0508,-0.0515,-0.0526,-0.0519,-0.0535,-0.0537,-0.0517,-0.0569,-0.0574,-0.0594,-0.0613,-0.063,-0.0582,-0.0627,-0.0603,-0.0521,-0.053,-0.0519,-0.051,-0.0522,-0.0515,-0.0594,-0.0593,-0.0593,0,-0.0501,-0.0487,-0.0509,-0.0486,-0.0475,-0.0505,-0.0473,-0.0475,-0.0484,-0.0472,-0.0493,-0.0519,-0.0549,-0.0542,-0.0529,-0.0556,-0.0578,-0.0552,-0.0515,-0.0506,-0.0499,-0.0514,-0.0507,-0.0587,-0.0588,-0.0589,-0.0589,0,-0.0465,-0.0448,-0.0438,-0.0414,-0.0403,-0.0381,-0.0377,-0.0359,-0.0361,-0.0365,-0.0346,-0.0384,-0.0402,-0.0414,-0.0452,-0.0423,-0.0461,-0.0502,-0.0532,-0.0479,-0.0499,-0.0494,-0.0579,-0.0581,-0.0583,-0.0584,0,0,-0.0458,-0.0419,-0.041,-0.0377,-0.0356,-0.0339,-0.0298,-0.0266,-0.0239,-0.0236,-0.0198,-0.022,-0.0247,-0.0269,-0.0319,-0.0318,-0.0284,-0.0379,-0.0382,-0.0372,-0.0306,-0.0315,-0.0312,-0.0323,-0.0322,-0.0321,-0.0339,0,-0.0414,-0.0349,-0.0341,-0.0271,-0.0233,-0.023,-0.0187,-0.0164,-0.0153,-0.0122,-0.0145,-0.0139,-0.0193,-0.0202,-0.0204,-0.0274,-0.0268,-0.0275,-0.0375,-0.0377,-0.0376,-0.0305,-0.0229,-0.0236,-0.0335,-0.0334,-0.0334,0,-0.0367,-0.0328,-0.0247,-0.0183,-0.0166,-0.013,-0.0067,-0.0033,-0.0008,0.0001,0.0007,-0.0028,-0.0026,-0.0083,-0.0134,-0.0141,-0.0202,-0.025,-0.0254,-0.0296,-0.0376,-0.0309,-0.0226,-0.0347,-0.0328,-0.0328,-0.0329,0,-0.0327,-0.0258,-0.0184,-0.016,-0.0098,-0.0059,-0.0031,0.0005,0.0049,0.0073,0.0099,0.0079,0.0072,0.0009,-0.0087,-0.0113,-0.0146,-0.0205,-0.0264,-0.0267,-0.0237,-0.0238,-0.0262,-0.0223,-0.0223,-0.0223,-0.0222,0,-0.0272,-0.0216,-0.0161,-0.0117,-0.003,-0.0013,0.0071,0.0094,0.0136,0.0202,0.016,0.0199,0.0095,0.0057,-0.0041,-0.0125,-0.0113,-0.0221,-0.0258,-0.0195,-0.0192,-0.0328,-0.0403,-0.0223,-0.0223,-0.0223,-0.0223,0,-0.0228,-0.0193,-0.0104,-0.0029,-0.0004,0.0059,0.0137,0.0191,0.0214,0.0296,0.0309,0.0295,0.0252,0.0143,0.0039,-0.0062,-0.0194,-0.019,-0.0107,-0.0133,-0.0307,-0.0378,-0.0412,-0.0452,-0.0249,-0.0249,-0.0249,0,-0.0194,-0.0142,-0.0036,0.0019,0.0058,0.0138,0.0197,0.0236,0.0296,0.0364,0.0413,0.0391,0.0407,0.0251,0.0097,-0.0051,-0.0176,-0.0123,-0.0153,-0.0275,-0.0382,-0.042,-0.0454,-0.007,-0.0068,-0.0067,-0.0066,0,-0.0125,-0.0085,-0.0013,0.0096,0.0172,0.0261,0.0339,0.0399,0.0458,0.0527,0.0612,0.0627,0.0502,0.0405,0.0183,0.0067,-0.0167,-0.0106,-0.0242,-0.0234,-0.0263,-0.0333,-0.0118,-0.0056,-0.0057,-0.0058,-0.0058,-0.0059,-0.0069,-0.001,0.0082,0.0186,0.0274,0.0378,0.0458,0.0541,0.0656,0.0783,0.0786,0.0867,0.0678,0.041,0.0215,-0.0081,-0.0108,-0.0179,-0.0251,-0.0277,-0.0311,-0.0074,-0.0057,-0.0058,-0.0059,-0.0059,-0.006,0,0.0002,0.006,0.016,0.0289,0.0393,0.0422,0.0555,0.0641,0.0788,0.0925,0.1025,0.1036,0.0794,0.0495,0.0095,-0.0168,-0.0253,-0.0324,-0.0354,-0.0384,-0.017,-0.0159,-0.015,-0.015,-0.015,-0.015,-0.015,-0.015,0.0045,0.0143,0.0191,0.0369,0.0456,0.0594,0.0676,0.0806,0.0931,0.113,0.1238,0.1286,0.1058,0.0325,-0.0216,-0.0355,-0.0537,-0.0543,-0.0691,-0.0555,-0.0547,-0.054,-0.0547,-0.062,-0.0621,-0.0825,-0.0828,-0.083]}],[{"header":{"parameterUnit":"m.s-1","parameterCategory":2,"la1":30.2991,"la2":30.254,"lo1":-89.0895,"lo2":-89.0444,"dy":0.0017,"dx":0.0017,"nx":28,"ny":28,"refTime":"2024-02-25T03:00:00:Z","depth":"2","parameterNumber":2,"parameterNumberName":"U-component_of_CURRENTS"},"data":[0,0,0,0,0,0,0,0,0,0,0,0,0,0,0,0,0,0,0,0,0,0,0,0,0,0,0,0,0,0,0,0,0,0,0,0,0,0,0,0,0,0,0,0,0,0,0,0,0,0,0,0,0,0,0,0,0,0,0.2203,0.2205,0,0.2407,0.2409,0.2412,0.24,0.2396,0.2393,0.2391,0.2405,0.2409,0.2412,0,0,0,0,0,0,0,0,0,0,0,0,0,0.2108,0.2108,0.2203,0.2206,0.2208,0.2407,0.2409,0.2412,0.24,0.2396,0.2393,0.2389,0.2404,0.2408,0.2412,0,0,0,0,0,0,0,0,0,0,0,0,0,0.2215,0.2108,0.2203,0.2225,0.2229,0.2406,0.241,0.2413,0.2401,0.2396,0.2392,0.2387,0.2403,0.2408,0.2413,0.2534,0,0,0.2428,0.243,0,0,0,0,0,0,0,0,0.2208,0.2218,0.2219,0.2224,0.2229,0.2372,0.2382,0.2444,0.2402,0.2337,0.239,0.2385,0.238,0.2386,0.2439,0.2535,0.2536,0.2428,0.2431,0.2433,0.2434,0,0,0,0,0,0,0,0.22,0.2211,0.2285,0.2222,0.2228,0.233,0.2337,0.2396,0.2379,0.2342,0.2341,0.2364,0.238,0.2434,0.2438,0.2536,0.2428,0.2432,0.2435,0.2437,0.2627,0.263,0,0,0,0,0,0,0.2163,0.2203,0.2278,0.2291,0.2206,0.2333,0.2342,0.2332,0.2382,0.2387,0.2368,0.2363,0.2428,0.2433,0.2439,0.2464,0.2433,0.2438,0.244,0.2625,0.2628,0.263,0,0,0,0,0,0,0.2159,0.2166,0.227,0.2253,0.2273,0.2337,0.2328,0.2338,0.2403,0.2404,0.2403,0.2422,0.2425,0.2432,0.2493,0.2468,0.244,0.2444,0.2623,0.2626,0.2629,0.2593,0,0,0,0,0,0,0.2155,0.2163,0.2176,0.2249,0.2272,0.2379,0.2333,0.2345,0.2422,0.2418,0.2451,0.2447,0.2422,0.2487,0.2498,0.2474,0.2448,0.262,0.2624,0.2628,0.2591,0.2594,0.2597,0,0,0,0,0,0.2151,0.2178,0.2174,0.2186,0.2274,0.2382,0.2406,0.2438,0.243,0.2477,0.2487,0.2446,0.2518,0.2495,0.2507,0.2483,0.2618,0.2623,0.2628,0.259,0.2594,0.2597,0,0,0,0,0,0,0.2149,0.2182,0.2178,0.2214,0.2292,0.2379,0.2447,0.2471,0.2531,0.2526,0.2506,0.2506,0.2546,0.2554,0.2528,0.2556,0.2551,0.2559,0.2518,0.2522,0.2524,0.25,0.2452,0,0,0,0,0,0.2154,0.218,0.2235,0.2276,0.2315,0.2393,0.2452,0.2477,0.2531,0.2555,0.2567,0.2578,0.2586,0.2583,0.2617,0.2659,0.2688,0.2647,0.265,0.2652,0.2646,0.2686,0.269,0.2646,0.2646,0.2646,0,0,0.2165,0.2195,0.2208,0.2281,0.2348,0.2417,0.2418,0.2521,0.255,0.2549,0.2604,0.2617,0.2613,0.2633,0.2647,0.2623,0.2692,0.2658,0.2658,0.2651,0.2691,0.2695,0.2698,0.2649,0.2649,0.2648,0,0,0.222,0.2232,0.2276,0.2342,0.2443,0.2482,0.2513,0.2607,0.2616,0.2688,0.2665,0.2675,0.2721,0.2683,0.267,0.2732,0.2727,0.2733,0.2694,0.2733,0.2736,0.2739,0.2816,0.2825,0.2704,0.2704,0.2704,0,0.2223,0.2279,0.232,0.2392,0.2443,0.2504,0.2571,0.261,0.2703,0.2706,0.2693,0.2738,0.2731,0.2709,0.2693,0.2728,0.2768,0.2666,0.2732,0.2735,0.2738,0.2816,0.2827,0.2702,0.2703,0.2703,0.2703,0,0.2307,0.2366,0.2415,0.2487,0.2552,0.2638,0.2673,0.2724,0.2735,0.275,0.2766,0.2765,0.2766,0.2753,0.2724,0.2725,0.2757,0.2749,0.2708,0.2739,0.2822,0.2834,0.2701,0.2701,0.2702,0.2702,0,0,0.225,0.2426,0.2447,0.2494,0.2606,0.2661,0.2708,0.2753,0.276,0.2798,0.2798,0.2775,0.2764,0.2752,0.2722,0.2716,0.2766,0.2718,0.2721,0.2769,0.2885,0.2711,0.2708,0.2759,0.276,0.2761,0.2944,0,0.2296,0.2445,0.2508,0.2621,0.2688,0.2738,0.2762,0.2803,0.2815,0.2833,0.2798,0.2802,0.2761,0.2744,0.2736,0.2771,0.2791,0.2719,0.287,0.2876,0.2693,0.2712,0.2458,0.258,0.2956,0.2958,0.296,0,0.2322,0.2429,0.2559,0.2664,0.2691,0.2744,0.2783,0.2815,0.2835,0.2835,0.2828,0.2826,0.2816,0.2781,0.2845,0.2802,0.2839,0.2861,0.2869,0.2718,0.272,0.2608,0.2588,0.298,0.2978,0.2977,0.2975,0,0.2261,0.2431,0.2533,0.2583,0.2719,0.2744,0.2782,0.2814,0.2817,0.2838,0.2851,0.2858,0.2867,0.2905,0.294,0.2901,0.3038,0.3006,0.2901,0.2894,0.271,0.268,0.3067,0.3066,0.3066,0.3065,0.3065,0,0.2257,0.2339,0.2514,0.2579,0.2643,0.2718,0.2741,0.2779,0.2806,0.2818,0.2838,0.2852,0.2892,0.2964,0.2991,0.2984,0.3097,0.2897,0.291,0.2694,0.2662,0.3023,0.3016,0.3072,0.3071,0.3069,0.3068,0,0.2199,0.2324,0.2443,0.2599,0.2629,0.267,0.2728,0.2733,0.2773,0.2798,0.2807,0.2874,0.294,0.3006,0.3098,0.3031,0.3063,0.3045,0.2798,0.2771,0.2891,0.288,0.2926,0.2921,0.2917,0.2913,0.291,0,0.2212,0.2275,0.2447,0.2493,0.2572,0.2627,0.2647,0.2704,0.2715,0.2804,0.2818,0.2896,0.2876,0.2952,0.2882,0.2895,0.3032,0.2675,0.2498,0.2858,0.2869,0.2865,0.286,0.2299,0.2291,0.2285,0.228,0,0.2199,0.2252,0.2327,0.2445,0.2498,0.2558,0.2602,0.2606,0.267,0.2666,0.2696,0.2685,0.2712,0.254,0.2538,0.2522,0.2628,0.2535,0.3014,0.2324,0.2266,0.2276,0.2293,0.2223,0.2229,0.2233,0.2236,0.2238,0.2132,0.2172,0.2245,0.2323,0.2417,0.2464,0.2394,0.2423,0.2388,0.231,0.2461,0.2323,0.2322,0.2089,0.2076,0.2082,0.2226,0.2138,0.216,0.2187,0.2031,0.1962,0.184,0.1843,0.1846,0.1848,0.1851,0,0.1991,0.2026,0.211,0.2174,0.2203,0.2327,0.2319,0.2185,0.2031,0.2065,0.1956,0.1729,0.1577,0.1679,0.1536,0.1501,0.1521,0.1502,0.1516,0.1569,0.1618,0.1435,0.1086,0.1084,0.1083,0.1081,0,0,0.1895,0.1857,0.1898,0.189,0.1978,0.1905,0.1852,0.1711,0.1648,0.1486,0.1385,0.1369,0.1513,0.1224,0.1206,0.1139,0.136,0.1104,0.1705,0.1769,0.1816,0.1957,0.173,0,0,0,0,0]},{"header":{"parameterUnit":"m.s-1","parameterCategory":2,"la1":30.2991,"la2":30.254,"lo1":-89.0895,"lo2":-89.0444,"dy":0.0017,"dx":0.0017,"nx":28,"ny":28,"refTime":"2024-02-25T03:00:00:Z","depth":"2","parameterNumber":3,"parameterNumberName":"V-component_of_CURRENTS"},"data":[0,0,0,0,0,0,0,0,0,0,0,0,0,0,0,0,0,0,0,0,0,0,0,0,0,0,0,0,0,0,0,0,0,0,0,0,0,0,0,0,0,0,0,0,0,0,0,0,0,0,0,0,0,0,0,0,0,0,0.0269,0.0268,0,0.02,0.02,0.0199,0.0164,0.0164,0.0164,0.0164,0.0109,0.0108,0.0107,0,0,0,0,0,0,0,0,0,0,0,0,0,0.0327,0.0327,0.0269,0.0268,0.0267,0.02,0.02,0.0199,0.0165,0.0164,0.0164,0.0164,0.011,0.0108,0.0106,0,0,0,0,0,0,0,0,0,0,0,0,0,0.0286,0.0327,0.027,0.0241,0.0238,0.0201,0.02,0.0199,0.0165,0.0164,0.0164,0.0164,0.011,0.0108,0.0106,0.0098,0,0,0.01,0.0099,0,0,0,0,0,0,0,0,0.0289,0.0284,0.0246,0.0243,0.0239,0.0189,0.02,0.0165,0.0165,0.0194,0.0164,0.0164,0.0137,0.0132,0.0122,0.0096,0.0094,0.01,0.0099,0.0098,0.0097,0,0,0,0,0,0,0,0.0292,0.0287,0.0244,0.0245,0.0241,0.0216,0.0211,0.0193,0.0169,0.0191,0.0188,0.0178,0.0135,0.0124,0.012,0.0093,0.01,0.0098,0.0097,0.0096,0.0036,0.0036,0,0,0,0,0,0,0.03,0.029,0.0246,0.0241,0.0262,0.0216,0.021,0.0207,0.0169,0.0162,0.0179,0.0177,0.0127,0.0123,0.0118,0.0117,0.0098,0.0096,0.0095,0.0037,0.0036,0.0036,0,0,0,0,0,0,0.0301,0.0297,0.0249,0.0262,0.0254,0.0215,0.0212,0.0206,0.0188,0.0158,0.0152,0.0166,0.0127,0.0121,0.0097,0.0114,0.0095,0.0093,0.0037,0.0037,0.0036,0.0108,0,0,0,0,0,0,0.0303,0.0298,0.0297,0.0263,0.0254,0.0234,0.0212,0.0204,0.0181,0.0179,0.0146,0.0141,0.0126,0.01,0.0095,0.0111,0.0092,0.0038,0.0037,0.0036,0.0106,0.011,0.0113,0,0,0,0,0,0.0306,0.0307,0.0298,0.0292,0.0255,0.0234,0.0228,0.0199,0.0181,0.0181,0.0151,0.0142,0.0092,0.0099,0.0093,0.0108,0.0038,0.0037,0.0036,0.0105,0.0109,0.0113,0,0,0,0,0,0,0.0328,0.0302,0.0292,0.0284,0.0264,0.0228,0.022,0.0197,0.0172,0.0168,0.0137,0.013,0.0117,0.0093,0.0101,0.0085,0.0063,0.0061,0.0117,0.0121,0.0125,0.0133,0.009,0,0,0,0,0,0.0334,0.033,0.0302,0.0296,0.0287,0.0252,0.0237,0.0221,0.0193,0.0181,0.0154,0.0126,0.0109,0.01,0.0078,0.007,0.0043,0.0072,0.0076,0.0079,0.008,0.0034,0.0034,0.0033,0.0033,0.0033,0,0,0.0338,0.0325,0.0321,0.03,0.0281,0.0282,0.0243,0.0227,0.0229,0.018,0.0169,0.0136,0.0106,0.01,0.0092,0.0084,0.007,0.0078,0.0082,0.008,0.0033,0.0033,0.0033,0.0032,0.0032,0.0033,0,0,0.0352,0.0337,0.0341,0.0332,0.0309,0.0297,0.0293,0.0257,0.0244,0.0229,0.0194,0.017,0.0138,0.0125,0.0114,0.012,0.0088,0.0107,0.0139,0.0095,0.0095,0.0095,0.0089,0.0087,0.0112,0.0113,0.0113,0,0.036,0.0364,0.0338,0.0344,0.0344,0.0308,0.032,0.0304,0.0265,0.026,0.0236,0.0184,0.0157,0.0154,0.0151,0.0133,0.0103,0.0133,0.0102,0.0101,0.0099,0.0092,0.009,0.0116,0.0115,0.0115,0.0115,0,0.038,0.0385,0.0387,0.0392,0.039,0.0392,0.0375,0.0369,0.0346,0.0327,0.0305,0.0257,0.0226,0.0215,0.0184,0.0163,0.0146,0.0113,0.0099,0.0104,0.0096,0.0092,0.0121,0.0119,0.0118,0.0118,0,0,0.0401,0.0402,0.0405,0.042,0.0417,0.0421,0.0434,0.0436,0.0449,0.0401,0.0408,0.0358,0.0313,0.0294,0.0249,0.0208,0.0179,0.0152,0.0148,0.016,0.0098,0.0086,0.008,0.0128,0.0127,0.0126,0.0108,0,0.0428,0.0454,0.045,0.0486,0.0501,0.049,0.0511,0.0509,0.0498,0.0495,0.0441,0.0424,0.0351,0.0333,0.0278,0.0206,0.0166,0.0189,0.0077,0.0075,0.0074,0.0074,0.0067,0.0048,0.0103,0.0103,0.0102,0,0.0456,0.0472,0.0508,0.0542,0.0549,0.0569,0.0605,0.0616,0.061,0.0596,0.056,0.0511,0.0457,0.0384,0.0263,0.0274,0.0183,0.0123,0.012,0.0077,0.0054,0.0043,0.0038,0.0095,0.0096,0.0096,0.0097,0,0.049,0.052,0.0554,0.0563,0.0591,0.0612,0.0632,0.0645,0.0664,0.0655,0.0664,0.0586,0.0554,0.0425,0.0304,0.0266,0.0181,0.0118,0.003,0.003,-0.0012,-0.0015,0.0017,0.0017,0.0017,0.0018,0.0018,0,0.0527,0.0554,0.0572,0.0591,0.0642,0.065,0.0703,0.0713,0.0734,0.0771,0.0706,0.0717,0.0551,0.0487,0.0346,0.0201,0.0213,0.0038,0.0015,0.0015,0.0015,0.0016,0.0017,0.0017,0.0017,0.0017,0.0017,0,0.0555,0.0565,0.0605,0.0641,0.0656,0.0692,0.0746,0.0782,0.08,0.0848,0.0847,0.0808,0.0726,0.0593,0.0421,0.0272,0.0134,0.0078,0.0115,0.0095,-0.0002,0.0002,-0.005,-0.005,-0.0051,-0.0052,-0.0052,0,0.0569,0.0591,0.0638,0.0662,0.0678,0.0729,0.0767,0.0804,0.0847,0.091,0.0937,0.0896,0.0859,0.0644,0.0407,0.0194,0.0171,0.0035,-0.0061,0.0003,-0.0013,-0.0008,-0.0004,-0.0073,-0.0074,-0.0074,-0.0075,0,0.0596,0.061,0.0639,0.0688,0.0731,0.0788,0.0847,0.0896,0.0956,0.1004,0.1064,0.1047,0.0858,0.063,0.0358,0.0207,0.0064,0.0014,0.0073,-0.0056,-0.0022,-0.0037,-0.0031,-0.0079,-0.0079,-0.0078,-0.0078,-0.0078,0.0612,0.0632,0.0668,0.0719,0.0769,0.0844,0.09,0.0958,0.104,0.1094,0.1104,0.1052,0.0842,0.0445,0.0251,0.0038,0.0017,-0.0107,-0.0104,-0.0101,-0.0102,-0.0071,-0.0135,-0.0135,-0.0135,-0.0135,-0.0135,0,0.0624,0.0651,0.0696,0.0761,0.0824,0.085,0.0951,0.0994,0.1082,0.1094,0.1097,0.0876,0.0635,0.0441,0.0094,-0.0124,-0.0137,-0.0166,-0.015,-0.0145,-0.0141,-0.0143,-0.0187,-0.0188,-0.0188,-0.0188,0,0,0.0629,0.0668,0.0694,0.0796,0.0849,0.0936,0.0999,0.1035,0.1055,0.1052,0.0998,0.0877,0.0658,0.0391,0.0146,-0.002,-0.0035,-0.0049,0.0007,0.0058,0.0065,-0.01,-0.0097,0,0,0,0,0]}],[{"header":{"parameterUnit":"m.s-1","parameterCategory":2,"la1":30.2991,"la2":30.254,"lo1":-89.0895,"lo2":-89.0444,"dy":0.0017,"dx":0.0017,"nx":28,"ny":28,"refTime":"2024-02-25T03:00:00:Z","depth":"4","parameterNumber":2,"parameterNumberName":"U-component_of_CURRENTS"},"data":[0,0,0,0,0,0,0,0,0,0,0,0,0,0,0,0,0,0,0,0,0,0,0,0,0,0,0,0,0,0,0,0,0,0,0,0,0,0,0,0,0,0,0,0,0,0,0,0,0,0,0,0,0,0,0,0,0,0,0.0595,0.0594,0,0.0618,0.062,0.0621,0.073,0.0731,0.0732,0.0734,0.0783,0.0783,0.0784,0,0,0,0,0,0,0,0,0,0,0,0,0,0.0637,0.0637,0.0595,0.0594,0.0593,0.0618,0.062,0.0622,0.073,0.0731,0.0733,0.0734,0.0783,0.0783,0.0784,0,0,0,0,0,0,0,0,0,0,0,0,0,0.0649,0.0637,0.0596,0.0639,0.0642,0.0618,0.062,0.0622,0.073,0.0731,0.0733,0.0735,0.0783,0.0783,0.0784,0.0749,0,0,0.0784,0.0785,0,0,0,0,0,0,0,0,0.0648,0.065,0.0634,0.0636,0.0639,0.066,0.0652,0.0661,0.0729,0.0712,0.0734,0.0736,0.0733,0.0738,0.0759,0.0752,0.0754,0.0785,0.0785,0.0785,0.0785,0,0,0,0,0,0,0,0.0647,0.0649,0.062,0.0632,0.0635,0.0654,0.0659,0.0655,0.0724,0.0714,0.0718,0.0696,0.0738,0.0759,0.0761,0.0754,0.0784,0.0785,0.0785,0.0785,0.0866,0.0868,0,0,0,0,0,0,0.0613,0.0648,0.0619,0.0619,0.0632,0.065,0.0657,0.0664,0.0724,0.073,0.0695,0.0701,0.0757,0.076,0.0763,0.0843,0.0785,0.0785,0.0785,0.0864,0.0866,0.0868,0,0,0,0,0,0,0.0614,0.0611,0.0617,0.0621,0.0621,0.0646,0.0654,0.0663,0.0706,0.0706,0.0717,0.0728,0.0759,0.0762,0.0789,0.0841,0.0785,0.0785,0.0862,0.0865,0.0867,0.0926,0,0,0,0,0,0,0.0616,0.0613,0.0626,0.0619,0.0619,0.0616,0.065,0.0662,0.0681,0.0691,0.0737,0.0743,0.076,0.0789,0.0789,0.084,0.0786,0.0859,0.0863,0.0866,0.0922,0.0931,0.0938,0,0,0,0,0,0.0618,0.0617,0.0627,0.0623,0.0631,0.0614,0.0619,0.0652,0.068,0.07,0.0739,0.0743,0.0814,0.0789,0.079,0.0842,0.0857,0.0862,0.0866,0.0918,0.0929,0.0938,0,0,0,0,0,0,0.0641,0.0626,0.0638,0.0635,0.0629,0.0628,0.0641,0.0656,0.0703,0.0733,0.0746,0.0754,0.0794,0.0805,0.0777,0.0879,0.0844,0.0849,0.0884,0.0894,0.0902,0.0875,0.0786,0,0,0,0,0,0.0645,0.0652,0.063,0.0632,0.0629,0.064,0.0643,0.0669,0.0688,0.0715,0.0739,0.0781,0.0808,0.084,0.0853,0.0898,0.0873,0.094,0.0949,0.0956,0.0936,0.095,0.0957,0.0883,0.0883,0.0883,0,0,0.0648,0.0642,0.0646,0.0638,0.0646,0.0649,0.0654,0.0669,0.0682,0.0707,0.0755,0.0789,0.0818,0.0877,0.0901,0.09,0.0965,0.0961,0.0967,0.0943,0.0955,0.0962,0.0968,0.0886,0.0885,0.0885,0,0,0.0648,0.0661,0.0666,0.0667,0.0669,0.0672,0.0674,0.069,0.0714,0.0757,0.0779,0.0836,0.089,0.0922,0.0945,0.1,0.0987,0.1033,0.1078,0.1093,0.1099,0.1103,0.1076,0.1077,0.1064,0.1064,0.1064,0,0.0662,0.0662,0.0663,0.067,0.0675,0.0681,0.0694,0.0702,0.0731,0.0749,0.0787,0.0888,0.091,0.0968,0.1009,0.1017,0.1013,0.1037,0.1102,0.1106,0.1109,0.108,0.1081,0.1068,0.1067,0.1067,0.1067,0,0.0658,0.0672,0.0672,0.0692,0.0704,0.0713,0.0713,0.0743,0.0787,0.0802,0.0874,0.0929,0.1007,0.1033,0.1044,0.1098,0.108,0.1088,0.1069,0.1119,0.1087,0.1086,0.1072,0.1071,0.107,0.1069,0,0,0.0658,0.0668,0.0675,0.0692,0.0724,0.0728,0.0757,0.0771,0.0794,0.0865,0.0913,0.0995,0.1053,0.108,0.1118,0.1138,0.1164,0.1142,0.1141,0.1101,0.1177,0.1111,0.1104,0.1199,0.1199,0.12,0.1142,0,0.0661,0.0669,0.0685,0.0715,0.0723,0.076,0.0773,0.0803,0.085,0.0892,0.0958,0.1015,0.106,0.1131,0.1166,0.1148,0.1167,0.1176,0.1145,0.1142,0.1067,0.1103,0.1202,0.1141,0.1141,0.1141,0.1141,0,0.066,0.0664,0.0686,0.0725,0.0734,0.0769,0.0828,0.0843,0.0888,0.0932,0.1032,0.1068,0.1129,0.116,0.1186,0.12,0.1199,0.1178,0.1177,0.1087,0.1076,0.1084,0.114,0.114,0.114,0.114,0.114,0,0.0657,0.0677,0.0694,0.0708,0.0742,0.0788,0.0827,0.0878,0.0903,0.0969,0.1034,0.1091,0.1169,0.1167,0.1171,0.1191,0.1154,0.1179,0.1107,0.11,0.1148,0.1144,0.1182,0.1182,0.1183,0.1183,0.1183,0,0.0652,0.0671,0.0698,0.0713,0.0747,0.0797,0.0858,0.0896,0.097,0.0997,0.108,0.1123,0.1183,0.1186,0.1159,0.1124,0.1164,0.1095,0.1086,0.1175,0.1174,0.1147,0.1143,0.1181,0.1181,0.1181,0.1182,0,0.0646,0.0657,0.0677,0.0723,0.0751,0.0787,0.0892,0.0919,0.1003,0.106,0.1091,0.1167,0.1166,0.1175,0.1145,0.1127,0.1061,0.1037,0.1091,0.1089,0.0996,0.0997,0.0953,0.0951,0.0948,0.0947,0.0945,0,0.0625,0.0637,0.0688,0.0695,0.0729,0.0794,0.0831,0.093,0.0965,0.1056,0.1071,0.1125,0.1156,0.1058,0.1062,0.0993,0.0996,0.0956,0.1012,0.0978,0.0975,0.0979,0.0983,0.0941,0.0941,0.094,0.0939,0,0.0589,0.0624,0.0643,0.0665,0.0711,0.0742,0.0821,0.0852,0.0938,0.103,0.1032,0.103,0.1037,0.1005,0.0974,0.0919,0.097,0.0932,0.0938,0.0991,0.0963,0.0963,0.0969,0.0932,0.0933,0.0933,0.0934,0,0.057,0.0573,0.0605,0.062,0.0654,0.0668,0.0726,0.0771,0.083,0.095,0.0921,0.096,0.101,0.0962,0.0898,0.0872,0.0882,0.0858,0.0869,0.0877,0.0882,0.0838,0.075,0,0,0,0,0,0.0539,0.0542,0.0547,0.0561,0.0587,0.0615,0.0688,0.0741,0.0845,0.083,0.0887,0.0869,0.0847,0.0847,0.0807,0.0858,0.0871,0.0807,0.0846,0.0888,0.0897,0.0911,0,0,0,0,0,0,0.0519,0.0534,0.0533,0.05,0.0498,0.0533,0.0579,0.0648,0.0652,0.0751,0.074,0.0817,0.0798,0.086,0.0789,0.0792,0.0799,0.0834,0.0832,0.0882,0.0891,0.0898,0.0915,0,0,0,0,0]},{"header":{"parameterUnit":"m.s-1","parameterCategory":2,"la1":30.2991,"la2":30.254,"lo1":-89.0895,"lo2":-89.0444,"dy":0.0017,"dx":0.0017,"nx":28,"ny":28,"refTime":"2024-02-25T03:00:00:Z","depth":"4","parameterNumber":3,"parameterNumberName":"V-component_of_CURRENTS"},"data":[0,0,0,0,0,0,0,0,0,0,0,0,0,0,0,0,0,0,0,0,0,0,0,0,0,0,0,0,0,0,0,0,0,0,0,0,0,0,0,0,0,0,0,0,0,0,0,0,0,0,0,0,0,0,0,0,0,0,0.0266,0.0266,0,0.0259,0.0259,0.0258,0.0261,0.0262,0.0262,0.0262,0.0247,0.0246,0.0246,0,0,0,0,0,0,0,0,0,0,0,0,0,0.0259,0.0259,0.0266,0.0266,0.0266,0.0259,0.0259,0.0258,0.0261,0.0262,0.0262,0.0262,0.0247,0.0246,0.0246,0,0,0,0,0,0,0,0,0,0,0,0,0,0.0258,0.0259,0.0266,0.0267,0.0267,0.0259,0.0259,0.0258,0.0261,0.0262,0.0262,0.0262,0.0247,0.0247,0.0246,0.0235,0,0,0.0243,0.0243,0,0,0,0,0,0,0,0,0.0258,0.0258,0.0267,0.0267,0.0267,0.0261,0.025,0.025,0.0261,0.0263,0.0262,0.0262,0.0251,0.025,0.0248,0.0234,0.0233,0.0243,0.0242,0.0242,0.0242,0,0,0,0,0,0,0,0.0258,0.0258,0.0263,0.0267,0.0267,0.0259,0.0259,0.025,0.0255,0.0263,0.0263,0.0263,0.0251,0.0249,0.0247,0.0233,0.0243,0.0242,0.0242,0.0241,0.0192,0.0191,0,0,0,0,0,0,0.026,0.0258,0.0263,0.0263,0.0263,0.0259,0.0259,0.0263,0.0256,0.0255,0.0262,0.0263,0.025,0.0248,0.0247,0.022,0.0242,0.0241,0.0241,0.0193,0.0192,0.0191,0,0,0,0,0,0,0.026,0.0261,0.0264,0.026,0.026,0.0259,0.0263,0.0262,0.0267,0.0255,0.0254,0.0268,0.025,0.0248,0.0238,0.022,0.0241,0.024,0.0194,0.0192,0.0191,0.0175,0,0,0,0,0,0,0.026,0.0261,0.0263,0.0261,0.026,0.0262,0.0262,0.0262,0.0266,0.0267,0.026,0.0258,0.025,0.024,0.0237,0.0219,0.0239,0.0195,0.0193,0.0192,0.0177,0.0174,0.0171,0,0,0,0,0,0.026,0.026,0.0263,0.0264,0.0264,0.0262,0.0261,0.0261,0.0266,0.0267,0.026,0.0259,0.0228,0.0239,0.0236,0.0217,0.0195,0.0194,0.0192,0.0178,0.0174,0.0171,0,0,0,0,0,0,0.0258,0.0261,0.0264,0.0266,0.0266,0.0263,0.0261,0.0265,0.0261,0.0263,0.0254,0.0252,0.0234,0.023,0.0241,0.0198,0.0209,0.0207,0.02,0.0196,0.0193,0.019,0.0239,0,0,0,0,0,0.0259,0.0263,0.0263,0.0266,0.0265,0.0266,0.0265,0.0269,0.0265,0.0264,0.0254,0.0241,0.0223,0.0215,0.0201,0.0183,0.0169,0.0167,0.0164,0.0161,0.0157,0.012,0.0113,0.0185,0.0185,0.0185,0,0,0.026,0.0262,0.0265,0.0266,0.0266,0.0263,0.0266,0.0269,0.0265,0.0262,0.0249,0.0235,0.0217,0.0192,0.0183,0.0187,0.0133,0.0159,0.0157,0.0154,0.0117,0.011,0.0104,0.0184,0.0184,0.0184,0,0,0.0264,0.0266,0.0269,0.0268,0.027,0.0266,0.027,0.0267,0.0262,0.0253,0.024,0.0214,0.0199,0.0169,0.0156,0.0129,0.0121,0.0127,0.0107,0.0072,0.0065,0.006,0.0032,0.0025,0.0123,0.0123,0.0123,0,0.0266,0.0273,0.0269,0.027,0.0271,0.0269,0.0272,0.0261,0.0255,0.0244,0.0249,0.0202,0.0183,0.014,0.0123,0.0121,0.0107,0.0123,0.0068,0.0062,0.0056,0.003,0.0021,0.0122,0.0122,0.0122,0.0122,0,0.0271,0.0276,0.0276,0.0276,0.0274,0.0278,0.0265,0.0255,0.025,0.0236,0.0203,0.0175,0.0149,0.0128,0.0115,0.0062,0.0066,0.0071,0.0078,0.0048,0.0022,0.0013,0.012,0.0121,0.0121,0.0121,0,0,0.0281,0.0282,0.0284,0.0289,0.0282,0.0283,0.0264,0.0246,0.0237,0.021,0.0189,0.0134,0.0123,0.0106,0.0083,0.0036,-0.0025,0.0034,0.0033,0.0009,-0.0098,-0.0068,-0.0075,-0.0026,-0.0027,-0.0029,-0.01,0,0.029,0.0299,0.0295,0.0301,0.0303,0.029,0.0275,0.0254,0.0236,0.0208,0.016,0.0136,0.0115,0.0105,0.0053,0.0002,-0.0048,-0.0005,-0.0067,-0.0069,-0.0038,-0.0084,-0.0034,-0.0106,-0.0108,-0.011,-0.0111,0,0.0296,0.0304,0.0315,0.0318,0.0318,0.0323,0.0307,0.0295,0.0244,0.0228,0.0188,0.0157,0.0086,0.0078,-0.0029,0.0003,-0.0053,-0.0099,-0.0102,-0.0076,-0.0056,-0.0071,-0.0126,-0.0125,-0.0124,-0.0123,-0.0122,0,0.0308,0.0317,0.0332,0.0333,0.033,0.0338,0.034,0.0306,0.0299,0.0248,0.0239,0.0157,0.0137,0.0045,-0.0041,-0.0038,-0.0157,-0.0158,-0.0189,-0.0187,-0.0183,-0.0176,-0.0247,-0.0247,-0.0247,-0.0247,-0.0247,0,0.0315,0.0328,0.0347,0.0357,0.0378,0.0369,0.0383,0.0366,0.0343,0.0331,0.0267,0.0236,0.0128,0.0053,-0.0042,-0.0132,-0.0151,-0.0205,-0.021,-0.0187,-0.018,-0.0189,-0.0181,-0.025,-0.0249,-0.0248,-0.0248,0,0.032,0.0331,0.0351,0.0371,0.0387,0.0405,0.0434,0.0434,0.0416,0.0401,0.0387,0.0298,0.0196,0.009,-0.0057,-0.0108,-0.0217,-0.0246,-0.021,-0.0209,-0.0227,-0.022,-0.0298,-0.0297,-0.0297,-0.0297,-0.0297,0,0.0322,0.0335,0.0374,0.0395,0.0415,0.0448,0.0468,0.0471,0.0474,0.0429,0.0419,0.0328,0.0255,0.008,-0.0043,-0.0204,-0.0224,-0.0264,-0.0265,-0.0239,-0.0236,-0.0229,-0.0222,-0.0296,-0.0296,-0.0296,-0.0296,0,0.0326,0.0345,0.0363,0.041,0.045,0.0483,0.052,0.0527,0.0516,0.051,0.044,0.0338,0.0229,0.0078,-0.0026,-0.0153,-0.0232,-0.0262,-0.0264,-0.0266,-0.0239,-0.0234,-0.0227,-0.0295,-0.0295,-0.0295,-0.0295,0,0.0331,0.0346,0.0376,0.0416,0.0463,0.0498,0.0518,0.0524,0.0529,0.0494,0.0462,0.0333,0.0264,0.0103,-0.0014,-0.0109,-0.0144,-0.0167,-0.0174,-0.0177,-0.0116,-0.0062,-0.0081,0,0,0,0,0,0.0331,0.0346,0.0378,0.0416,0.0462,0.0495,0.0536,0.0546,0.055,0.0514,0.0494,0.0383,0.0212,0.012,0.0027,-0.0024,-0.0165,-0.0135,-0.0196,-0.029,-0.0291,-0.0238,0,0,0,0,0,0,0.0327,0.0356,0.0369,0.0411,0.0439,0.0491,0.052,0.0524,0.0503,0.0491,0.0395,0.037,0.0194,0.0264,0.0026,-0.0006,-0.0053,-0.0211,-0.0213,-0.029,-0.0291,-0.0292,-0.0237,0,0,0,0,0]}]]